Flag for U.S.A. Weather past 2 weeks in Syracuse, New York, U.S.A.

Now
65 °F

Overcast.


Feels Like: 65 °F
Forecast: 62 / 71 °F
Wind: 5 mph from Southwest

Location: Syracuse Hancock International Airport

Current Time: Jul 1, 2015 at 8:20:34 AM

Latest Report: Jul 1, 2015 at 7:54 AM


Visibility: 10 mi

Pressure: 29.71 "Hg

Humidity: 97%

Dew point: 64 °F

Location of SyracuseLocation

Historic Weather in Syracuse — Graph

°F

Syracuse temperature yesterday

Maximum temperature yesterday: 74 °F (at 4:54 PM)
Minimum temperature yesterday: 56 °F (at 3:54 AM)
Average temperature yesterday: 64 °F

Past Weeks' High & Low Weather Summary

 TemperatureHumidityPressure
High84 °F (Jun 23, 1:54 PM)100% (Jun 28, 4:54 AM)30.16 "Hg (Jun 28, 4:54 AM)
Low49 °F (Jun 20, 3:54 AM)7% (Jun 21, 2:54 AM)28.69 "Hg (Jun 21, 3:54 AM)
Average67 °F76%29.90 "Hg
* Reported Jun 16 7:54 AM — Jul 1 7:01 AM, Syracuse, Weather by CustomWeather, © 2015

Note: Actual official high and low records may vary slightly from our data, if they occured in-between our weather recording intervals... More about our weather records

Advertising

Syracuse weather history for previous 24 hours

 ConditionsComfort  
Time TempWeatherWind HumidityBarometerVisibility
7:01 AM
Wed, Jul 1
65 °FRain. Fog.9 mph97%29.71 "Hg2 mi
5:54 AM66 °FPassing clouds.7 mph90%29.68 "Hg10 mi
4:54 AM65 °FPartly cloudy.10 mph94%29.69 "Hg10 mi
3:54 AM63 °FMostly cloudy.3 mph100%29.70 "Hg7 mi
2:54 AM63 °FFog.6 mph100%29.70 "Hg5 mi
1:54 AM63 °FFog.6 mph100%29.73 "Hg5 mi
11:54 PM
Tue, Jun 30
64 °FMostly cloudy.9 mph100%29.76 "Hg10 mi
10:54 PM67 °FThunderstorms. Mostly cloudy.9 mph97%29.78 "Hg7 mi
9:54 PM65 °FThunderstorms. Fog.5 mph97%29.78 "Hg5 mi
8:54 PM66 °FStrong thunderstorms. Fog.17 mph93%29.77 "Hg1 mi
7:54 PM68 °FCloudy.8 mph93%29.75 "Hg10 mi
6:54 PM71 °FThunderstorms. Mostly cloudy.5 mph81%29.76 "Hg10 mi
5:54 PM74 °FCloudy.14 mph76%29.74 "Hg10 mi
4:54 PM74 °FCloudy.12 mph82%29.76 "Hg10 mi
3:54 PM71 °FBroken clouds.10 mph84%29.79 "Hg10 mi
2:54 PM66 °FOvercast.9 mph90%29.82 "Hg10 mi
1:54 PM66 °FOvercast.10 mph90%29.84 "Hg10 mi
12:54 PM64 °FMostly cloudy.9 mph94%29.86 "Hg10 mi
11:54 AM62 °FLight rain. Overcast.9 mph93%29.87 "Hg10 mi
10:54 AM64 °FLight rain. Mostly cloudy.6 mph90%29.88 "Hg10 mi
9:54 AM65 °FLight rain. Mostly cloudy.9 mph81%29.89 "Hg10 mi
8:54 AM62 °FMostly cloudy.7 mph90%29.90 "Hg10 mi
Weather by CustomWeather, © 2015

See weather overviewHow to use our weather pages